Wichita Falls, TX

5:37 AM CST on November 19, 2017 (GMT -0600)
Sheppard Air Force Base-Wichita Falls Municipal

Weather History for KSPS - March, 2013

Change the Weather History Date:

Saturday, March 9, 2013

  Actual Average Record
Temperature  
Mean Temperature 65 °F 52 °F  
Max Temperature 73 °F 65 °F 87 °F (1955)
Min Temperature 56 °F 40 °F 15 °F (1996)
Degree Days  
Heating Degree Days 0 13  
Month to date heating degree days 113 130  
Since 1 July heating degree days 2329 2576  
Cooling Degree Days 0 0  
Month to date cooling degree days 0 0  
Year to date cooling degree days 5 3  
Growing Degree Days 15 (Base 50)    
Moisture  
Dew Point 52 °F    
Average Humidity 60    
Maximum Humidity 93    
Minimum Humidity 26    
Precipitation  
Precipitation 0.27 in 0.07 in 1.84 in (1907)
Month to date precipitation 0.27 0.71  
Year to date precipitation 2.95 3.60  
Snow  
Snow 0.00 in 0.00 in - ()
Month to date snowfall 0.0 0.2  
Since 1 July snowfall 3.5 3.6  
Snow Depth -    
Sea Level Pressure  
Sea Level Pressure 29.72 in    
Wind  
Wind Speed 14 mph (SSW)    
Max Wind Speed 32 mph    
Max Gust Speed 40 mph    
Visibility 9 miles    
Events Rain , Thunderstorm    
T = Trace of Precipitation, MM = Missing Value Source: NWS Daily Summary

Daily Weather History Graph

Daily Weather History Graph

Search for Another Location

Airport or City:

Trip Planner

Search our weather history database for the weather conditions in past years. The results will help you decide how hot, cold, wet, or windy it might be!

Date:

Astronomy

Mar. 09, 2013 Rise Set
Actual Time 6:52 AM CST 6:37 PM CST
Civil Twilight 6:27 AM CST 7:02 PM CST
Nautical Twilight 5:58 AM CST 7:31 PM CST
Astronomical Twilight 5:29 AM CST 8:00 PM CST
Moon 5:12 AM CST (3/9) 4:44 PM CST (3/9)
Length of Visible Light 12h 35m
Length of Day
11h 45m
Waning Crescent, 5% of the Moon is Illuminated
Mar 9
Waning Crescent
Mar 11
New
Mar 19
First Quarter
Mar 27
Full
Apr 2
Last Quarter

Hourly Weather History & Observations

Time (CST) Temp. Dew Point Humidity Pressure Visibility Wind Dir Wind Speed Gust Speed Precip Events Conditions
12:52 AM 62.1 °F 57.0 °F 84% 29.84 in 10.0 mi SSE 19.6 mph - N/A   Overcast
1:52 AM 62.1 °F 55.9 °F 80% 29.82 in 10.0 mi SSE 16.1 mph - N/A   Overcast
2:52 AM 62.1 °F 55.9 °F 80% 29.80 in 10.0 mi SSE 13.8 mph - N/A   Overcast
3:52 AM 61.0 °F 55.9 °F 83% 29.77 in 10.0 mi SSE 18.4 mph - N/A   Overcast
4:52 AM 59.0 °F 55.9 °F 90% 29.80 in 5.0 mi SSE 8.1 mph - 0.00 in Rain Light Rain
5:52 AM 59.0 °F 57.0 °F 93% 29.79 in 10.0 mi SE 9.2 mph - 0.00 in   Overcast
6:52 AM 59.0 °F 57.2 °F 94% 29.81 in 9.0 mi SE 10.4 mph - N/A Rain Light Rain
7:22 AM 59.0 °F 57.2 °F 94% 29.80 in 10.0 mi SE 15.0 mph - 0.00 in   Overcast
7:52 AM 59.0 °F 57.0 °F 93% 29.77 in 8.0 mi SE 18.4 mph - 0.00 in   Overcast
8:37 AM 60.8 °F 57.2 °F 88% 29.79 in 10.0 mi SSE 19.6 mph - N/A   Overcast
8:49 AM 60.8 °F 57.2 °F 88% 29.79 in 10.0 mi SSE 17.3 mph - N/A   Overcast
8:52 AM 61.0 °F 57.9 °F 90% 29.77 in 10.0 mi SE 19.6 mph - N/A   Overcast
9:38 AM 62.6 °F 59.0 °F 88% 29.77 in - North - - N/A   Unknown
9:52 AM - - N/A% 29.77 in - North - - N/A   Unknown
10:52 AM 71.1 °F 60.1 °F 68% 29.71 in 10.0 mi South 24.2 mph 32.2 mph N/A   Unknown
11:52 AM 71.1 °F 59.0 °F 66% 29.69 in 10.0 mi South 23.0 mph 27.6 mph N/A   Clear
12:52 PM 72.0 °F 59.0 °F 64% 29.65 in 10.0 mi South 18.4 mph - N/A   Scattered Clouds
1:25 PM 66.2 °F 48.2 °F 52% 29.67 in 10.0 mi WNW 19.6 mph 27.6 mph N/A   Overcast
1:38 PM 64.4 °F 51.8 °F 64% 29.67 in 10.0 mi WNW 15.0 mph - N/A Thunderstorm Overcast
1:52 PM 61.0 °F 55.0 °F 81% 29.65 in 2.0 mi West 12.7 mph - 0.02 in Rain , Thunderstorm Heavy Thunderstorms and Rain
1:59 PM 60.8 °F 55.4 °F 82% 29.67 in 1.0 mi West 8.1 mph - 0.15 in Rain , Thunderstorm Heavy Thunderstorms and Rain
2:06 PM 60.8 °F 55.4 °F 82% 29.66 in 3.0 mi WNW 9.2 mph - 0.19 in Rain , Thunderstorm Light Rain
2:14 PM 60.8 °F 55.4 °F 82% 29.66 in 9.0 mi WNW 5.8 mph - 0.19 in Rain , Thunderstorm Light Rain
2:52 PM 62.1 °F 57.9 °F 86% 29.64 in 7.0 mi West 3.5 mph - 0.24 in Rain , Thunderstorm Light Thunderstorms and Rain
3:15 PM 64.4 °F 57.2 °F 77% 29.65 in 10.0 mi Calm Calm - 0.00 in Rain Light Rain
3:52 PM 66.0 °F 55.9 °F 70% 29.61 in 10.0 mi West 9.2 mph - 0.01 in   Mostly Cloudy
4:52 PM 72.0 °F 39.9 °F 31% 29.61 in 10.0 mi WNW 16.1 mph 24.2 mph N/A   Overcast
5:52 PM 69.8 °F 37.4 °F 31% 29.64 in 10.0 mi WNW 15.0 mph - N/A   Scattered Clouds
6:52 PM 68.0 °F 32.0 °F 26% 29.67 in 10.0 mi West 11.5 mph - N/A   Overcast
7:52 PM 63.0 °F 30.9 °F 30% 29.66 in 10.0 mi West 5.8 mph - N/A   Scattered Clouds
8:52 PM 57.9 °F 55.0 °F 90% 29.68 in 10.0 mi SSE 12.7 mph - N/A   Mostly Cloudy
9:40 PM 57.2 °F 53.6 °F 88% 29.73 in 9.0 mi Variable 4.6 mph - N/A Thunderstorm Thunderstorm
9:52 PM 57.2 °F 55.4 °F 94% 29.71 in 10.0 mi SE 9.2 mph - N/A Rain Light Rain
10:52 PM 60.1 °F 50.0 °F 69% 29.79 in 10.0 mi SW 10.4 mph - 0.00 in   Overcast
11:52 PM 59.0 °F 36.0 °F 42% 29.77 in 10.0 mi WSW 15.0 mph - 0.00 in   Mostly Cloudy